Weather in Telavi

Georgia     41˚55′20″N   45˚28′53″E
temp.,
°C
wind,
m/s
gust,
m/s
humid.,
%
clouds,
%
prec.,
mm/h
press.,
hPa
HPBL,
m
3 december, thu
thu301:00+3˚wnw118028 0.0 102922
04:00+3˚w128214 0.0 102922
07:00+2˚w12820 0.0 102922
10:00+5˚w11710 0.0 102988
13:00+8˚ese22610 0.0 1028658
16:00+9˚se12600 0.0 1028862
19:00+5˚se117710 0.0 102923
22:00+5˚ene007741 0.0 102923
4 december, fri
fri401:00+6˚w1176100 0.0 103022
04:00+5˚nw1178100 0.1 102923
07:00+5˚nw118395 0.1 102922
10:00+5˚w117997 0.1 1029215
13:00+8˚sw016693 0.1 1027503
16:00+8˚wsw116376 0.1 1026656
19:00+5˚wnw118054 0.0 102831
22:00+4˚wnw118250 0.1 102823
5 december, sat
sat501:00+3˚w128889 0.0 102823
04:00+3˚wnw128883 0.0 102823
07:00+2˚wnw128469 0.0 102723
10:00+5˚wnw226961 0.0 1027107
13:00+8˚nw005581 0.0 1025464
16:00+9˚sse115281 0.1 1024603
19:00+6˚ne116490 0.0 102622
22:00+5˚ene117293 0.1 102622
6 december, sun
sun601:00+4˚w118088 0.1 102722
04:00+4˚w228188 0.1 102630
07:00+3˚w127992 0.0 102730
10:00+5˚s017792 0.0 1027284
13:00+4˚e129498 0.3 1026163
16:00+3˚e139699 1.4 1025209
19:00+3˚e2595100 0.9 1027300
22:00+3˚ese2596100 1.6 1028266
7 december, mon
mon701:00+2˚ene1396100 0.9 1029241
04:00+2˚ese2495100 1.9 1029286
07:00+1˚ese1296100 0.4 1030200
10:00+2˚ese1193100 0.8 1030205
13:00+3˚ese127799 0.3 1029457
16:00+4˚ese337090 0.5 1029726
19:00+1˚ese229054 0.1 103164
22:00+1˚ese129276 0.3 1031100